Location: Trout Lake
(45.9980°N, 121.5270°W)
Time: 20:35:31
(UTC-08:00)

SL-16 R/B - Pass Details

Date: 06 December 2023
Orbit: 842 x 846 km, 71.0° (Epoch: 22 February)

Event Time Altitude Azimuth Distance (km) Brightness Sun altitude
Rises 16:57:08 0° 328° (NNW) 3,414 5.4 -6.3°
Reaches altitude 10° 16:59:41 10° 322° (NW) 2,474 4.8 -6.7°
Maximum altitude 17:05:01 44° 252° (WSW) 1,159 3.6 -7.5°
Drops below altitude 10° 17:10:19 10° 182° (S) 2,454 5.0 -8.4°
Sets 17:12:51 0° 176° (S) 3,384 5.6 -8.8°
